Find KUIPER-00451

NORAD ID: 68945 Int'l Des: 2026-098AC Owner: KUIP Country: US Constellation: amazon-leo operational
LEOCIRCULAR

現在のビュー

3D地球を読み込み中...

About KUIPER-00451

KUIPER-00451 (NORAD 68945) is a amazon-leo constellation satellite launched Apr 30, 2026 by KUIP of US. It operates in LEO, CIRCULAR orbit with a mass of 490.00 kg.

KUIPER-00451について

説明を読み込み中...

次回通過

Passes for default location (London). Set your location on the main map for personalized predictions.

高度履歴

Loading altitude history...

軌道要素

1 68945U 26098AC 26170.91668981 -.00011989 00000-0 -43078-3 0 9996
2 68945 51.8779 56.3123 0012833 146.4251 190.5763 15.27129859 3240
Epoch: Jun 19, 2026 • Age: 8 hours

現在のステータス

高度 485.5 km
速度 7.63 km/s
衛星直下点 51.95°N, 145.1°E
打ち上げ日 Apr 30, 2026
運用期間 0.1 years
タイプ internet

技術仕様

分類 Payload
質量 490.00 kg
乾燥質量 490.00 kg
総質量 490.00 kg
長さ 1.80 m
直径 0.70 m
スパン 5.00 m
形状 Box + 2 pan
製造者 KUIP
バスタイプ Kuiper
フェーズステータス In Orbit
所有者/国 KUIP/US

Most Searched